| time (UTC) | temp C | wind direction | speed KPH | gust KPH | rain 1hr cm | rain 24hr cm | rain mn cm | humidity % | barometer mb |
| 20260504050002 | -17 | 526.3 | 410.4 | 0.00 | 0.00 | 0.00 | 1009.2 | ||
| 20260504044505 | -17 | 526.3 | 410.4 | 0.00 | 0.00 | 0.00 | 1009.3 | ||
| 20260504043006 | -17 | 526.3 | 410.4 | 0.00 | 0.00 | 0.00 | 1009.5 | ||
| 20260504041502 | -17 | 526.3 | 410.4 | 0.00 | 0.00 | 0.00 | 1009.4 | ||
| 20260504040006 | -17 | 526.3 | 410.4 | 0.00 | 0.00 | 0.00 | 1009.3 | ||
| 20260504034501 | -17 | 526.3 | 410.4 | 0.00 | 0.00 | 0.00 | 1009.6 | ||
| 20260504033004 | -17 | 526.3 | 410.4 | 0.00 | 0.00 | 0.00 | 1009.3 | ||
| 20260504031502 | -17 | 526.3 | 410.4 | 0.00 | 0.00 | 0.00 | 1009.2 | ||
| 20260504030002 | -17 | 526.3 | 410.4 | 0.00 | 0.00 | 0.00 | 1009.1 | ||
| 20260504024503 | -17 | 526.3 | 410.4 | 0.00 | 0.00 | 0.00 | 1008.9 | ||
| 20260504023004 | -17 | 526.3 | 410.4 | 0.00 | 0.00 | 0.00 | 1009.1 | ||
| 20260504021501 | -17 | 526.3 | 410.4 | 0.00 | 0.00 | 0.00 | 1009.0 | ||
| 20260504020002 | -17 | 526.3 | 410.4 | 0.00 | 0.00 | 0.00 | 1008.7 | ||
| 20260504014502 | -17 | 526.3 | 410.4 | 0.00 | 0.00 | 0.00 | 1008.6 | ||
| 20260504013005 | -17 | 526.3 | 410.4 | 0.00 | 0.00 | 0.00 | 1008.3 | ||
| 20260504011501 | -17 | 526.3 | 410.4 | 0.00 | 0.00 | 0.00 | 1008.2 | ||
| 20260504010001 | -17 | 526.3 | 410.4 | 0.00 | 0.00 | 0.00 | 1007.9 | ||
| 20260504004505 | -17 | 526.3 | 410.4 | 0.00 | 0.00 | 0.00 | 1007.9 | ||
| 20260504003004 | -17 | 526.3 | 410.4 | 0.00 | 0.00 | 0.00 | 1007.8 | ||
| 20260504001502 | -17 | 526.3 | 410.4 | 0.00 | 0.00 | 0.00 | 1007.6 | ||
| 20260504000002 | -17 | 526.3 | 410.4 | 0.00 | 0.00 | 0.00 | 1007.4 | ||
| 20260503234502 | -17 | 526.3 | 410.4 | 0.00 | 0.00 | 0.00 | 1007.2 | ||
| 20260503233004 | -17 | 526.3 | 410.4 | 0.00 | 0.00 | 0.00 | 1007.2 | ||
| 20260503231502 | -17 | 526.3 | 410.4 | 0.00 | 0.00 | 0.00 | 1007.2 | ||
| 20260503230001 | 24 | 67 | 1.6 | 4.8 | 0.00 | 0.00 | 0.00 | 95 | 1006.9 |
| 20260503224502 | 24 | 66 | 1.6 | 6.4 | 0.00 | 0.00 | 0.00 | 95 | 1006.7 |
| 20260503223003 | 24 | 117 | 1.6 | 6.4 | 0.00 | 0.00 | 0.00 | 95 | 1006.7 |
| 20260503221501 | 24 | 59 | 1.6 | 4.8 | 0.00 | 0.00 | 0.00 | 95 | 1006.6 |
| 20260503220001 | 24 | 101 | 1.6 | 4.8 | 0.00 | 0.00 | 0.00 | 95 | 1006.5 |
| 20260503214503 | 24 | 65 | 3.2 | 6.4 | 0.00 | 0.00 | 0.00 | 95 | 1006.7 |
| 20260503213005 | 24 | 67 | 3.2 | 8.0 | 0.00 | 0.00 | 0.00 | 94 | 1006.7 |
| 20260503211500 | 24 | 101 | 3.2 | 11.3 | 0.00 | 0.00 | 0.00 | 94 | 1006.8 |
| 20260503210002 | 25 | 81 | 1.6 | 4.8 | 0.00 | 0.00 | 0.00 | 92 | 1006.9 |
| 20260503204502 | 25 | 116 | 3.2 | 4.8 | 0.00 | 0.00 | 0.00 | 92 | 1006.9 |
| 20260503203004 | 25 | 101 | 1.6 | 6.4 | 0.00 | 0.00 | 0.00 | 92 | 1007.2 |
| 20260503201502 | 25 | 53 | 3.2 | 9.7 | 0.00 | 0.00 | 0.00 | 93 | 1007.2 |
| 20260503200002 | 24 | 59 | 1.6 | 4.8 | 0.00 | 0.00 | 0.00 | 93 | 1007.3 |
| 20260503194504 | 24 | 92 | 0.0 | 4.8 | 0.00 | 0.00 | 0.00 | 93 | 1007.2 |
| 20260503193007 | 25 | 87 | 0.0 | 1.6 | 0.00 | 0.00 | 0.00 | 93 | 1007.3 |
| 20260503191511 | 25 | 87 | 1.6 | 6.4 | 0.00 | 0.00 | 0.00 | 92 | 1007.6 |
| 20260503190004 | 25 | 60 | 3.2 | 9.7 | 0.00 | 0.00 | 0.00 | 93 | 1007.6 |
| 20260503184503 | 25 | 89 | 4.8 | 14.5 | 0.00 | 0.00 | 0.00 | 93 | 1007.7 |
| 20260503183006 | 25 | 90 | 1.6 | 6.4 | 0.00 | 0.00 | 0.00 | 93 | 1007.9 |
| 20260503181504 | 25 | 85 | 1.6 | 9.7 | 0.00 | 0.00 | 0.00 | 93 | 1008.1 |
| 20260503180001 | 24 | 67 | 3.2 | 8.0 | 0.00 | 0.00 | 0.00 | 93 | 1008.0 |
| 20260503174601 | 24 | 75 | 1.6 | 4.8 | 0.00 | 0.00 | 0.00 | 93 | 1008.0 |
| 20260503174501 | 24 | 75 | 1.6 | 4.8 | 0.00 | 0.00 | 0.00 | 93 | 1008.0 |
| 20260503173013 | 24 | 80 | 3.2 | 8.0 | 0.00 | 0.00 | 0.00 | 93 | 1007.9 |
| 20260503171503 | 25 | 59 | 3.2 | 9.7 | 0.00 | 0.00 | 0.00 | 92 | 1007.8 |
| 20260503081510 | 28 | 266 | 4.8 | 22.5 | 0.00 | 0.00 | 0.00 | 82 | 1005.7 |
| 20260503071604 | 29 | 250 | 6.4 | 16.1 | 0.00 | 0.00 | 0.00 | 81 | 1006.8 |